User: anonymous   Login
Location: Kunchanapalle
(16.4623°N, 80.6176°E)
Time: 18:05:16
(UTC+00:00)
Language:

Cosmos 407 Rocket - Orbit

View from above orbital plane
View from above orbital plane
View from above satellite
View from above satellite

Ground track
Ground track

The orbit data is extracted from the following two-line orbital elements,

1  5175U 71035B   20298.50684038  .00000156  00000-0  60061-4 0  9998
2  5175  74.0462 114.3675 0029683  17.7362 342.4820 14.37995905591060
Epoch (UTC): 24 October 2020 12:09:51
Eccentricity: 0.0029683
inclination: 74.0462°
perigee height: 744 km
apogee height: 786 km
right ascension of ascending node: 114.3675°
argument of perigee: 17.7362°
revolutions per day: 14.37995905
mean anomaly at epoch: 342.4820°
orbit number at epoch: 59106

The dashed part of the orbit path shows where the satellite is in the earth's shadow,  

DLR